Location: LDNL
(36.4545°S, 141.6685°E)
Time: 08:46:16
(UTC+11:00)

Courier 1B - Pass Details

Date: 11 February 2023
Orbit: 962 x 1209 km, 28.3° (Epoch: 21 March)

Event Time Altitude Azimuth Distance (km) Brightness Sun altitude
Exits shadow 04:37:43 11° 19° (NNE) 3,049 9.8 -25.3°
Drops below altitude 10° 04:38:05 10° 21° (NNE) 3,134 9.9 -25.3°
Sets 04:41:44 0° 36° (NE) 4,102 10.7 -24.7°
